When you browse on this site, cookies collect data to enhance your experience and personalize the content and advertising you see.
Visit our Privacy Policy to learn more. By continuing to use the site, you agree to this use of cookies and data.
  • In Czech Republic
  • List of Countries
  • For 7 days
  • Water Temperature
  • Weather Map
  • Weather Widgets
  • user-avatar
    Login

    Hourly Weather Linz

    Today, 7 April, Tuesday

    Time Temperature Precipitation Wind Pressure Humidity
    00:00 +8°C° 0 mm 2 mps 742 mmHg 72%
    01:00 +8°C° 0 mm 1 mps 742 mmHg 73%
    02:00 +8°C° 0 mm 1 mps 742 mmHg 75%
    03:00 +7°C° 0 mm 1 mps 743 mmHg 76%
    04:00 +7°C° 0 mm 1 mps 743 mmHg 77%
    05:00 +8°C° 0 mm 1 mps 743 mmHg 75%
    06:00 +8°C° 0 mm 1 mps 743 mmHg 73%
    07:00 +8°C° 0 mm 0 mps 744 mmHg 70%
    08:00 +11°C° 0 mm 1 mps 744 mmHg 65%
    09:00 +13°C° 0 mm 1 mps 743 mmHg 59%
    10:00 +16°C° 0 mm 1 mps 743 mmHg 53%
    11:00 +18°C° 0 mm 1 mps 743 mmHg 50%
    12:00 +18°C° 0 mm 2 mps 743 mmHg 47%
    13:00 +20°C° 0 mm 2 mps 743 mmHg 44%
    14:00 +20°C° 0 mm 2 mps 743 mmHg 45%
    15:00 +20°C° 0 mm 2 mps 742 mmHg 45%
    16:00 +20°C° 0 mm 3 mps 742 mmHg 46%
    17:00 +18°C° 0 mm 3 mps 742 mmHg 52%
    18:00 +15°C° 0 mm 2 mps 742 mmHg 58%
    19:00 +13°C° 0 mm 2 mps 742 mmHg 64%
    20:00 +12°C° 0 mm 2 mps 743 mmHg 63%
    21:00 +10°C° 0 mm 2 mps 743 mmHg 61%
    22:00 +9°C° 0 mm 2 mps 743 mmHg 60%
    23:00 +8°C° 0 mm 2 mps 743 mmHg 60%

    Tomorrow, 8 April, Wednesday

    Time Temperature Precipitation Wind Pressure Humidity
    00:00 +8°C° 0 mm 2 mps 743 mmHg 61%
    01:00 +7°C° 0 mm 2 mps 743 mmHg 62%
    02:00 +6°C° 0 mm 2 mps 743 mmHg 63%
    03:00 +6°C° 0 mm 2 mps 743 mmHg 64%
    04:00 +5°C° 0 mm 2 mps 742 mmHg 65%
    05:00 +7°C° 0 mm 1 mps 742 mmHg 63%
    06:00 +7°C° 0 mm 1 mps 742 mmHg 62%
    07:00 +8°C° 0 mm 1 mps 742 mmHg 61%
    08:00 +10°C° 0 mm 1 mps 742 mmHg 55%
    09:00 +12°C° 0 mm 2 mps 742 mmHg 49%
    10:00 +14°C° 0 mm 2 mps 741 mmHg 43%
    11:00 +16°C° 0 mm 2 mps 741 mmHg 41%
    12:00 +17°C° 0 mm 2 mps 740 mmHg 39%
    13:00 +19°C° 0 mm 2 mps 740 mmHg 37%
    14:00 +19°C° 0 mm 2 mps 740 mmHg 37%
    15:00 +20°C° 0 mm 1 mps 739 mmHg 38%
    16:00 +20°C° 0 mm 1 mps 739 mmHg 39%
    17:00 +18°C° 0 mm 1 mps 739 mmHg 46%
    18:00 +14°C° 0 mm 1 mps 738 mmHg 54%
    19:00 +11°C° 0 mm 0 mps 738 mmHg 62%
    20:00 +10°C° 0 mm 0 mps 739 mmHg 62%
    21:00 +11°C° 0 mm 1 mps 739 mmHg 61%
    22:00 +10°C° 0 mm 1 mps 739 mmHg 61%
    23:00 +9°C° 0 mm 1 mps 739 mmHg 61%

    Day after tomorrow, 9 April, Thursday

    Time Temperature Precipitation Wind Pressure Humidity
    00:00 +9°C° 0 mm 1 mps 739 mmHg 61%
    01:00 +7°C° 0 mm 0 mps 739 mmHg 62%
    02:00 +7°C° 0 mm 0 mps 739 mmHg 63%
    03:00 +7°C° 0 mm 0 mps 738 mmHg 65%
    04:00 +6°C° 0 mm 0 mps 738 mmHg 66%
    05:00 +7°C° 0 mm 0 mps 738 mmHg 66%
    06:00 +8°C° 0 mm 0 mps 738 mmHg 66%
    07:00 +9°C° 0 mm 0 mps 739 mmHg 65%
    08:00 +13°C° 0 mm 1 mps 738 mmHg 64%
    09:00 +15°C° 0 mm 1 mps 738 mmHg 62%
    10:00 +17°C° 0 mm 2 mps 738 mmHg 60%
    11:00 +18°C° 0 mm 2 mps 738 mmHg 56%
    12:00 +19°C° 0 mm 3 mps 738 mmHg 52%
    13:00 +20°C° 0 mm 3 mps 738 mmHg 48%
    14:00 +20°C° 0 mm 3 mps 738 mmHg 48%
    15:00 +20°C° 0 mm 3 mps 737 mmHg 49%
    16:00 +20°C° 0 mm 3 mps 737 mmHg 49%
    17:00 +18°C° 0 mm 3 mps 737 mmHg 56%
    18:00 +16°C° 0 mm 2 mps 737 mmHg 63%
    19:00 +14°C° 0 mm 1 mps 737 mmHg 69%
    20:00 +13°C° 0 mm 1 mps 738 mmHg 70%
    21:00 +13°C° 0 mm 1 mps 738 mmHg 71%
    22:00 +12°C° 0 mm 1 mps 739 mmHg 72%
    23:00 +12°C° 0 mm 1 mps 739 mmHg 74%

    10 April, Friday

    Time Temperature Precipitation Wind Pressure Humidity
    00:00 +11°C° 0 mm 1 mps 739 mmHg 75%
    01:00 +10°C° 0 mm 1 mps 739 mmHg 77%
    02:00 +10°C° 0 mm 1 mps 739 mmHg 80%
    03:00 +9°C° 0 mm 1 mps 739 mmHg 82%
    04:00 +8°C° 0 mm 0 mps 739 mmHg 84%
    05:00 +9°C° 0 mm 0 mps 739 mmHg 81%
    06:00 +10°C° 0 mm 0 mps 739 mmHg 79%
    07:00 +11°C° 0 mm 0 mps 740 mmHg 76%
    08:00 +12°C° 0 mm 0 mps 740 mmHg 72%
    09:00 +15°C° 0 mm 1 mps 740 mmHg 68%
    10:00 +16°C° 0 mm 1 mps 740 mmHg 64%
    11:00 +18°C° 0 mm 1 mps 739 mmHg 61%
    12:00 +19°C° 0 mm 1 mps 739 mmHg 58%
    13:00 +20°C° 0 mm 1 mps 739 mmHg 55%
    14:00 +20°C° 0.1 mm 1 mps 738 mmHg 55%
    15:00 +20°C° 0.1 mm 1 mps 738 mmHg 56%
    16:00 +20°C° 0.1 mm 1 mps 738 mmHg 56%
    17:00 +18°C° 0 mm 1 mps 738 mmHg 64%
    18:00 +15°C° 0 mm 1 mps 737 mmHg 71%
    19:00 +14°C° 0 mm 1 mps 737 mmHg 79%
    20:00 +13°C° 0 mm 1 mps 738 mmHg 81%
    21:00 +12°C° 0 mm 1 mps 738 mmHg 83%
    22:00 +11°C° 0 mm 1 mps 738 mmHg 85%
    23:00 +11°C° 0 mm 1 mps 738 mmHg 86%

    11 April, Saturday

    Time Temperature Precipitation Wind Pressure Humidity
    00:00 +11°C° 0 mm 1 mps 738 mmHg 87%
    01:00 +10°C° 0 mm 1 mps 738 mmHg 88%
    02:00 +9°C° 0 mm 0 mps 738 mmHg 89%
    03:00 +8°C° 0 mm 0 mps 738 mmHg 90%
    04:00 +8°C° 0 mm 0 mps 738 mmHg 91%
    05:00 +9°C° 0 mm 0 mps 738 mmHg 88%
    06:00 +10°C° 0 mm 0 mps 738 mmHg 86%
    07:00 +10°C° 0 mm 0 mps 738 mmHg 83%
    08:00 +12°C° 0 mm 0 mps 738 mmHg 77%
    09:00 +14°C° 0 mm 0 mps 738 mmHg 70%
    10:00 +18°C° 0 mm 1 mps 738 mmHg 64%
    11:00 +19°C° 0 mm 1 mps 738 mmHg 59%
    12:00 +20°C° 0 mm 1 mps 737 mmHg 53%
    13:00 +21°C° 0 mm 1 mps 737 mmHg 48%
    14:00 +21°C° 0 mm 1 mps 737 mmHg 48%
    15:00 +21°C° 0 mm 1 mps 737 mmHg 48%
    16:00 +21°C° 0 mm 1 mps 736 mmHg 48%
    17:00 +19°C° 0 mm 1 mps 736 mmHg 55%
    18:00 +16°C° 0 mm 1 mps 736 mmHg 62%
    19:00 +13°C° 0 mm 0 mps 736 mmHg 69%
    20:00 +13°C° 0 mm 1 mps 736 mmHg 71%
    21:00 +13°C° 0 mm 1 mps 736 mmHg 74%
    22:00 +12°C° 0 mm 1 mps 737 mmHg 77%
    23:00 +11°C° 0 mm 1 mps 736 mmHg 78%

    12 April, Sunday

    Time Temperature Precipitation Wind Pressure Humidity
    00:00 +10°C° 0 mm 0 mps 736 mmHg 80%
    01:00 +9°C° 0 mm 0 mps 736 mmHg 82%
    02:00 +9°C° 0 mm 0 mps 736 mmHg 83%
    03:00 +9°C° 0 mm 0 mps 736 mmHg 84%
    04:00 +8°C° 0 mm 0 mps 735 mmHg 85%
    05:00 +9°C° 0 mm 0 mps 735 mmHg 82%
    06:00 +10°C° 0 mm 0 mps 735 mmHg 79%
    07:00 +11°C° 0 mm 0 mps 735 mmHg 77%
    08:00 +13°C° 0 mm 0 mps 735 mmHg 70%
    09:00 +18°C° 0 mm 1 mps 734 mmHg 63%
    10:00 +20°C° 0 mm 1 mps 734 mmHg 57%
    11:00 +21°C° 0 mm 1 mps 734 mmHg 52%
    12:00 +22°C° 0 mm 1 mps 733 mmHg 48%
    13:00 +23°C° 0 mm 1 mps 733 mmHg 43%
    14:00 +23°C° 0 mm 1 mps 732 mmHg 43%
    15:00 +23°C° 0 mm 1 mps 732 mmHg 43%
    16:00 +23°C° 0 mm 1 mps 731 mmHg 42%
    17:00 +21°C° 0 mm 1 mps 731 mmHg 49%
    18:00 +18°C° 0 mm 1 mps 731 mmHg 55%
    19:00 +14°C° 0 mm 0 mps 731 mmHg 61%
    20:00 +14°C° 0 mm 0 mps 731 mmHg 63%
    21:00 +13°C° 0 mm 0 mps 731 mmHg 65%
    22:00 +14°C° 0 mm 1 mps 732 mmHg 67%
    23:00 +13°C° 0 mm 1 mps 732 mmHg 68%
    Show more